Location: Newark
(49.2191°N, 12.6671°E)
Time: 15:19:15
(UTC+00:00)

Transit 4A - Pass Details

Date: 26 January 2020
Orbit: 872 x 973 km, 66.8° (Epoch: 26 February)

Event Time Altitude Azimuth Distance (km) Brightness Sun altitude
Rises 15:12:46 0° 317° (NW) 3,471 11.0 5.0°
Reaches altitude 10° 15:15:36 10° 305° (NW) 2,529 10.5 4.6°
Maximum altitude 15:20:21 27° 250° (WSW) 1,637 10.6 4.0°
Drops below altitude 10° 15:25:07 10° 195° (SSW) 2,536 11.1 3.3°
Sets 15:27:58 0° 184° (S) 3,483 11.5 3.0°
